Regional Weather Roundup
Issued by NWS

Home | Current Version | Previous Version | Text Only | Print | Product List | Glossary Off
Versions: 1 2 3 4 5 6 7 8 9 10 11 12 13 14 15 16 17 18 19 20 21 22 23 24 25 26 27 28 29 30 31 32 33 34 35 36 37 38 39 40 41 42 43 44 45 46 47 48 49 50

000
ASUS43 KLOT 220258
RWRIL

ILLINOIS REGIONAL WEATHER ROUNDUP
NATIONAL WEATHER SERVICE CHICAGO/ROMEOVILLE IL
1000 PM CDT SUN SEP 21 2014

NOTE: "FAIR" INDICATES FEW OR NO CLOUDS BELOW 12,000 FEET WITH NO
SIGNIFICANT WEATHER AND/OR OBSTRUCTIONS TO VISIBILITY.

* THESE STATIONS ARE NOT UNDER NWS QUALITY CONTROL. THEY ALSO MAY NOT
  REPORT WEATHER SUCH AS PRECIPITATION OR FOG.

ILZ001-002-007-009-015-016-024-220400-
NORTHWEST ILLINOIS

CITY           SKY/WX    TMP DP  RH WIND       PRES   REMARKS
MOLINE         CLEAR     58  47  66 N5        30.16R
$$

ILZ003-004-008-010-011-017-018-220400-
NORTH CENTRAL ILLINOIS

CITY           SKY/WX    TMP DP  RH WIND       PRES   REMARKS
ROCKFORD       NOT AVBL
$$

ILZ005-006-012>014-019>023-220400-
NORTHEAST ILLINOIS

CITY           SKY/WX    TMP DP  RH WIND       PRES   REMARKS
CHICAGO-OHARE  PTCLDY    57  47  69 N3        30.13R
CHICAGO-MIDWAY CLEAR     57  46  66 N7        30.13R
AURORA         CLEAR     49  44  83 N5        30.14R
WAUKEGAN       CLEAR     50  43  77 NW3       30.13R
DUPAGE AIRPORT CLEAR     49  44  83 N6        30.13R
WHEELING       CLEAR     51  46  83 CALM      30.15R
NORTHERLY ISL    N/A     58  44  60 NW9         N/A
$$

LMZ740>746-220400-
SOUTHERN LAKE MICHIGAN

STATION/POSITION SKY/WX   TEMP    WIND        PRES    VSBY  WAVE
                          AIR SEA DIR/SP/G                  HT/PER
                          (F)     (DEG/KT/KT) (MB)    (MI)  (FT/S)
SOUTHERN BUOY              55 62  350/ 19/ 23 1019.0R         7/ 8
WAUKEGAN HARBOR            54     340/  7/  8   N/A
HARRISON CRIB              58     350/ 21/ 24   N/A
BURNHAM HARBOR             58     330/  8/ 19   N/A
CALUMET HARBOR             58     330/  9/ 16 1018.7R
MICHIGAN CITY              57     350/ 22/ 26   N/A
MICHIGAN CITY 6N           58 64  360/ 17/ 23   N/A           9/ 8
ST. JOSEPH                 58 65  350/ 21/ 27   N/A           8/ 8
$$

ILZ025>027-034>036-040-047-049-050-058-095>099-220400-
WEST-CENTRAL ILLINOIS

CITY           SKY/WX    TMP DP  RH WIND       PRES   REMARKS
$$

ILZ028>032-037-038-041>044-048-051>054-059>061-220400-
CENTRAL ILLINOIS

CITY           SKY/WX    TMP DP  RH WIND       PRES   REMARKS
PEORIA         NOT AVBL
SPRINGFIELD    CLEAR     57  51  80 NW6       30.16R
TAYLORVILLE    NOT AVBL
$$

ILZ033-039-045-046-055>057-062-063-220400-
EAST-CENTRAL ILLINOIS

CITY           SKY/WX    TMP DP  RH WIND       PRES   REMARKS
CHAMPAIGN      CLEAR     55  51  86 NW8       30.12R
MATTOON        CLEAR     52  48  86 W6        30.12R
$$

ILZ079-100>102-220400-
SOUTHWEST ILLINOIS

CITY           SKY/WX    TMP DP  RH WIND       PRES   REMARKS
CAHOKIA*       CLEAR     64  51  62 N12       30.15R
$$

ILZ064>066-069>071-074>076-080>082-084>086-088>090-092>094-220400-
SOUTH-CENTRAL ILLINOIS

CITY           SKY/WX    TMP DP  RH WIND       PRES   REMARKS
CARBONDALE     CLEAR     61  50  67 N6        30.11R
$$

ILZ067-068-072-073-078-083-087-091-220400-
SOUTHEAST ILLINOIS

CITY           SKY/WX    TMP DP  RH WIND       PRES   REMARKS
LAWRENCEVILLE  CLEAR     58  51  78 N8        30.10R
$$

ABBREVIATIONS USED IN REMARKS
   TC - TEMPERATURE IN CELSIUS
  WCI - WIND CHILL INDEX
   HX - HEAT INDEX
  VSB - VISIBILITY
$$



USA.gov is the U.S. government's official web portal to all federal, state and local government web resources and services.